Regional Weather Roundup
Issued by NWS Goodland, KS

Home | Current Version | Previous Version | Text Only | Print | Product List | Glossary Off
Versions: 1 2 3 4 5 6 7 8 9 10 11 12 13 14 15 16 17 18 19 20 21 22 23 24 25 26 27 28 29 30 31 32 33 34 35 36 37 38 39 40 41 42 43 44 45 46 47 48 49 50

000
ASUS43 KGLD 012359
RWRGLD

GOODLAND FORECAST AREA HOURLY WEATHER ROUNDUP
NATIONAL WEATHER SERVICE GOODLAND KS
500 PM MST SUN MAR 01 2015

...OFFICIAL OBSERVATIONS...

CITY           SKY/WX    TMP DP  RH WIND       PRES   REMARKS
GOODLAND KS    MOCLDY    32  17  54 NE7       30.27S
HILL CITY KS   MOCLDY    35  20  54 S5        30.34S
IMPERIAL NEB     N/A     36  13  38 N5        30.28F
MCCOOK NEB     CLOUDY    38  10  31 NE5       30.31R
AKRON CO       PTCLDY    30  15  53 N3        30.24R
BURLINGTON CO  CLOUDY    30  17  58 NE8       30.25S
LIMON CO       CLOUDY    26  18  71 CALM      30.23R
$$

...UNOFFICIAL OBSERVATIONS...

CITY           SKY/WX    TMP DP  RH WIND       PRES   REMARKS
COLBY KS       CLEAR     34  19  55 NE3       30.31R
GOVE KS          N/A     34  32  92 MISG        N/A
LENORA KS        N/A     35  32  89 CALM        N/A
NORTON KS      CLEAR     36   7  30 NE6       30.31F
KIT CARSON CO    N/A     29  20  70 MISG        N/A
YUMA CO          N/A     33  15  48 NE6         N/A
$$


USA.gov is the U.S. government's official web portal to all federal, state and local government web resources and services.